Home   Weather   Kaarst   Past weeks

Flag for Germany Past Weather in Kaarst, North Rhine-Westphalia, Germany — Yesterday and Last 2 Weeks

Now
66 °F

Clear.


Feels Like: 66 °F
Forecast: 47 / 70 °F
Wind: 2 mph from North

Location: Monchengladbach Airport

Current Time: Sep 26, 2016 at 5:45:47 PM

Latest Report: Sep 26, 2016 at 4:50 PM


Visibility: 10 mi

Pressure: 30.21 "Hg

Humidity: 49%

Dew Point: 46 °F

Location of KaarstLocation

Past Weather in Kaarst — Graph

°F

Kaarst Temperature Yesterday

Maximum temperature yesterday: 81 °F (at 2:50 PM)
Minimum temperature yesterday: 55 °F (at 7:50 AM)
Average temperature yesterday: 70 °F

High & Low Weather Summary for the Past Weeks

 TemperatureHumidityPressure
High91 °F (Sep 13, 4:20 PM)100% (Sep 17, 7:50 AM)30.27 "Hg (Sep 17, 7:50 AM)
Low46 °F (Sep 22, 7:50 AM)29% (Sep 14, 4:20 PM)29.77 "Hg (Sep 15, 4:20 PM)
Average69 °F63%30.05 "Hg
* Reported Sep 11 4:20 PM — Sep 26 4:20 PM, Kaarst, Weather by CustomWeather, © 2016

Note: Actual official high and low records may vary slightly from our data, if they occured in-between our weather recording intervals... More about our weather records

Advertising

Kaarst Weather History for the Previous 24 Hours

Scroll right to see more
 ConditionsComfort  
Time TempWeatherWind HumidityBarometerVisibility
4:20 PM
Mon, Sep 26
68 °FClear.2 mph46%30.21 "Hg10 mi
3:50 PM68 °FClear.2 mph46%30.21 "Hg10 mi
3:20 PM68 °FPassing clouds.2 mph46%30.21 "HgN/A
2:50 PM68 °FPassing clouds.3 mph46%30.21 "HgN/A
2:20 PM68 °FPassing clouds.3 mph49%30.21 "HgN/A
1:50 PM68 °FPassing clouds.5 mph53%30.21 "HgN/A
1:20 PM68 °FPassing clouds.2 mph53%30.21 "HgN/A
12:50 PM64 °FPassing clouds.3 mph60%30.24 "HgN/A
12:20 PM64 °FClear.2 mph60%30.24 "Hg10 mi
11:50 AM63 °FClear.3 mph64%30.24 "Hg10 mi
11:20 AM61 °FClear.3 mph72%30.24 "Hg10 mi
10:50 AM59 °FClear.5 mph72%30.24 "Hg10 mi
10:20 AM57 °FSunny.6 mph77%30.24 "Hg10 mi
9:50 AM57 °FPassing clouds.5 mph72%30.24 "HgN/A
9:20 AM55 °FPassing clouds.6 mph77%30.24 "HgN/A
8:50 AM55 °FSunny.2 mph82%30.24 "Hg10 mi
8:20 AM52 °FSunny.2 mph88%30.21 "Hg10 mi
7:50 AM50 °FSunny.2 mph88%30.21 "Hg10 mi
9:20 PM
Sun, Sep 25
63 °FPassing clouds.6 mph64%30.12 "HgN/A
8:50 PM63 °FPassing clouds.10 mph64%30.12 "HgN/A
8:20 PM64 °FClear.13 mph68%30.09 "Hg10 mi
7:50 PM66 °FPassing clouds.16 mph68%30.09 "HgN/A
7:20 PM70 °FPassing clouds.16 mph64%30.07 "HgN/A
6:50 PM73 °FPassing clouds.10 mph53%30.04 "HgN/A
6:20 PM75 °FPassing clouds.9 mph50%30.01 "HgN/A
5:50 PM79 °FPassing clouds.10 mph39%30.01 "HgN/A
5:20 PM79 °FClear.7 mph39%30.01 "Hg10 mi
Weather by CustomWeather, © 2016

See weather overviewHow to use our weather pages